Regional Weather Roundup
Issued by NWS Newport/Morehead, NC

Current Version | Previous Version | Graphics & Text | Print | Product List | Glossary On
Versions: 1 2 3 4 5 6 7 8 9 10 11 12 13 14 15 16 17 18 19 20 21 22 23 24 25 26 27 28 29 30 31 32 33 34 35 36 37 38 39 40 41 42 43 44 45 46 47 48 49 50
000 ASUS42 KMHX 250625 RWRMHX WEATHER ROUNDUP FOR EASTERN NORTH CAROLINA NATIONAL WEATHER SERVICE NEWPORT/MOREHEAD CITY NC 200 AM EDT SAT MAR 25 2017 NOTE: "FAIR" INDICATES FEW OR NO CLOUDS BELOW 12,000 FEET WITH NO SIGNIFICANT WEATHER AND/OR OBSTRUCTIONS TO VISIBILITY NCZ015>017-031-032-045>047-102-103-250700- NORTH COAST CITY SKY/WX TMP DP RH WIND PRES REMARKS EDENTON CLEAR 59 50 73 SW9 30.34F ELIZABETH CITY CLEAR 57 49 74 SW14 30.32F KITTY HAWK NOT AVBL MANTEO CLEAR 56 50 81 SW10 30.34F $$ NCZ045>047-081-094-103-104-250700- CENTRAL COAST CITY SKY/WX TMP DP RH WIND PRES REMARKS FRISCO CLEAR 59 52 77 W8 30.36F HAZE $$ NCZ095-097-098-100-101-250700- SOUTHERN COAST CITY SKY/WX TMP DP RH WIND PRES REMARKS BEAUFORT CLEAR 62 53 72 SW9 30.37F CEDAR ISLAND NOT AVBL JACKSONVILLE CLEAR 57 51 80 SW5 30.36 PINEY ISLAND CLEAR N/A N/A N/A SW7 30.36F WILMINGTON CLEAR 54 50 86 CALM 30.37F $$ NCZ011>013-027>030-043-044-078>080-089-090>093-098-250700- COASTAL PLAIN CITY SKY/WX TMP DP RH WIND PRES REMARKS AHOSKIE N/A 56 49 76 SW3 30.32F CLINTON PTCLDY 55 50 83 CALM 30.37F ELIZABETHTOWN CLOUDY 55 50 83 CALM 30.36F GOLDSBORO CLOUDY 57 52 84 SW5 30.34F GREENVILLE CLEAR 57 50 77 SW8 30.35S HAVELOCK CLEAR 89 50 25 SW6 30.37F KENANSVILLE CLEAR 55 50 82 CALM 30.36F KINSTON CLEAR 54 49 82 SW6 30.36F NEW BERN CLEAR 54 50 86 SW7 30.37F RICHLANDS CLEAR 53 50 89 S6 30.37F ROCKY MOUNT CLOUDY 55 49 80 S6 30.34F WASHINGTON CLEAR 57 49 75 SW6 30.35F WHITEVILLE CLOUDY 54 50 86 CALM 30.36F $$ AMZ130-135-150-152-154-156-158-170-250-252-270-ANZ085-086-088-633-658-670-250700- MARINE OBSERVATIONS STATION/POSITION TIME TEMP WIND PRES WAVE SWELL AIR SEA DIR/SP/G HT/PER HT/PER (UTC) (F) (DEG/KT/KT) (MB) (FT/S) (FT/S) CHESAPEAKE LIGHT NOT AVBL 64 E VA BEACH 0550 54 51 220/ 16/ 17 1026.4 4/ 5 2/10 DUCK 0600 58 47 220/ 12/ 17 1026.2 2 E DUCK 0600 48 N/A 2/10 OREGON INLET 0600 54 210/ 11/ 13 1027.5 13E OREGON INLT NOT AVBL HATTERAS CG 0600 59 54 240/ 8/ 10 1027.7 DIAMOND BUOY 0550 67 76 210/ 21/ 25 1027.9 4/ 4 2/11 CAPE LOOKOUT 0600 65 210/ 10/ 12 1028.0 BEAUFORT LAB 0600 61 53 230/ 3/ 6 1027.4 30 SE NEW RVR IN 0608 66 220/ 12/ 16 1028.4 30 SE NEW RVR IN 0613 66 N/A 3/ 4 27 SE WRIGHTSVLE 0608 64 62 190/ 8/ 10 1027.6 5 SE WRIGHTSVLE 0608 60 57 200/ 8/ 12 1028.2 225 S CAPE HAT 0550 64 73 110/ 10/ 17 1029.3 5/ 8 5/ 8 41 SE CHARLESTON 0550 70 71 150/ 14/ 16 1027.5 4/ 8 3/ 8 $$

USA.gov is the U.S. government's official web portal to all federal, state and local government web resources and services.